[[{"header":{"parameterUnit":"m.s-1","parameterCategory":1,"la1":30.2992,"la2":30.254,"lo1":-89.0895,"lo2":-89.0443,"dy":0.0025,"dx":0.0025,"nx":19,"ny":19,"refTime":"2026-05-24T21:00:00:Z","depth":0,"parameterNumber":2,"parameterNumberName":"U-component_of_WINDS"},"data":[0,0,0,-0.376,-0.376,-0.3779,-0.3779,-0.3803,-0.3803,0,0,0,0,0,0,0,0,0,0,0,-0.3754,-0.3754,-0.376,-0.376,-0.3779,-0.3779,-0.3803,-0.3803,0,0,0,0,0,0,0,0,0,0,0,-0.3754,-0.3754,-0.3754,-0.376,-0.3779,-0.3779,-0.3803,-0.3789,0,0,0,0,0,0,0,0,0,0,-0.3771,-0.3764,-0.3754,-0.3754,-0.376,-0.3779,-0.3779,-0.3788,-0.379,-0.3794,0,-0.3797,0,-0.3801,-0.3804,-0.3805,0,0,0,-0.3761,-0.3763,-0.3769,-0.3754,-0.3761,-0.3779,-0.3771,-0.3789,-0.3791,-0.3796,-0.3798,-0.3799,-0.3801,-0.3805,-0.3805,-0.383,-0.383,0,0,-0.376,-0.3757,-0.3767,-0.377,-0.3766,-0.377,-0.3771,-0.379,-0.3792,-0.3798,-0.3799,-0.3801,-0.3805,-0.3805,-0.3829,-0.383,0,0,0,-0.3756,-0.3756,-0.3761,-0.3769,-0.3772,-0.377,-0.3772,-0.3791,-0.3793,-0.38,-0.3802,-0.3805,-0.3805,-0.3829,-0.3829,-0.3832,0,0,0,-0.3756,-0.3754,-0.3761,-0.3759,-0.3772,-0.3782,-0.3772,-0.3792,-0.3794,-0.3802,-0.3805,-0.3805,-0.3829,-0.3829,-0.3832,-0.3834,0,0,0,-0.3753,-0.3754,-0.3756,-0.3759,-0.3767,-0.3781,-0.3784,-0.3792,-0.3795,-0.3805,-0.3805,-0.3829,-0.3829,-0.3831,-0.3833,-0.384,0,0,0,-0.3748,-0.3757,-0.3756,-0.3767,-0.3767,-0.3782,-0.3784,-0.3796,-0.3805,-0.3805,-0.3829,-0.3829,-0.3831,-0.3833,-0.384,-0.3846,-0.3849,0,0,-0.3758,-0.3758,-0.3765,-0.3764,-0.378,-0.378,-0.3796,-0.3806,-0.381,-0.3823,-0.3824,-0.3832,-0.3833,-0.384,-0.386,-0.3862,0,0,0,-0.3767,-0.3772,-0.3776,-0.3785,-0.3793,-0.3801,-0.3809,-0.3813,-0.3825,-0.3816,-0.3836,-0.3837,-0.3841,-0.3844,-0.3846,-0.385,-0.3831,-0.3831,-0.3831,-0.3776,-0.378,-0.3792,-0.38,-0.3808,-0.3817,-0.3824,-0.3832,-0.3833,-0.3838,-0.3842,-0.3853,-0.3857,-0.3858,-0.3863,-0.3845,-0.3845,-0.3845,-0.3845,-0.3791,-0.3799,-0.3802,-0.3815,-0.382,-0.3831,-0.3841,-0.3842,-0.3854,-0.385,-0.3854,-0.3851,-0.386,-0.3864,-0.3845,-0.3845,-0.3845,-0.3845,-0.3845,-0.3797,-0.3802,-0.3808,-0.3821,-0.3831,-0.3839,-0.385,-0.3854,-0.3858,-0.3862,-0.3868,-0.3868,-0.3869,-0.3864,-0.3864,-0.3864,-0.3864,-0.3864,-0.3864,-0.3803,-0.3809,-0.3818,-0.3829,-0.3836,-0.3845,-0.3856,-0.3863,-0.3871,-0.3874,-0.3874,-0.3876,-0.3859,-0.3856,-0.3865,-0.3865,-0.3865,-0.3865,-0.3865,-0.3817,-0.3815,-0.3829,-0.3836,-0.385,-0.3861,-0.3866,-0.3881,-0.3887,-0.3893,-0.3895,-0.3881,-0.3882,-0.3881,-0.3878,-0.3893,-0.3893,-0.3893,-0.3893,-0.3823,-0.3824,-0.384,-0.3852,-0.3863,-0.387,-0.3887,-0.3897,-0.3905,-0.391,-0.3909,-0.3905,-0.3903,-0.3905,-0.3903,-0.3901,-0.3921,-0.3921,-0.3921,-0.3833,-0.3835,-0.3849,-0.3858,-0.387,-0.3881,-0.3898,-0.3911,-0.3921,-0.3922,-0.3914,-0.3913,-0.3907,-0.3905,-0.3906,-0.3903,-0.3898,0,0]},{"header":{"parameterUnit":"m.s-1","parameterCategory":1,"la1":30.2992,"la2":30.254,"lo1":-89.0895,"lo2":-89.0443,"dy":0.0025,"dx":0.0025,"nx":19,"ny":19,"refTime":"2026-05-24T21:00:00:Z","depth":0,"parameterNumber":3,"parameterNumberName":"V-component_of_WINDS"},"data":[0,0,0,-1.6558,-1.6559,-1.6583,-1.6583,-1.6628,-1.6628,0,0,0,0,0,0,0,0,0,0,0,-1.6561,-1.6561,-1.6558,-1.6559,-1.6583,-1.6583,-1.6627,-1.6628,0,0,0,0,0,0,0,0,0,0,0,-1.656,-1.6561,-1.6562,-1.6559,-1.6583,-1.6583,-1.6627,-1.6604,0,0,0,0,0,0,0,0,0,0,-1.6579,-1.659,-1.6561,-1.6562,-1.656,-1.6583,-1.6583,-1.6603,-1.6606,-1.6623,0,-1.6641,0,-1.6636,-1.6632,-1.6632,0,0,0,-1.6552,-1.6588,-1.6586,-1.6562,-1.656,-1.6583,-1.657,-1.6604,-1.6607,-1.6627,-1.6642,-1.6643,-1.6636,-1.6632,-1.6633,-1.6757,-1.6758,0,0,-1.6551,-1.657,-1.6584,-1.6588,-1.6586,-1.657,-1.6571,-1.6606,-1.6623,-1.6642,-1.6644,-1.6637,-1.6633,-1.6633,-1.6757,-1.6758,0,0,0,-1.6552,-1.6569,-1.6566,-1.6587,-1.659,-1.657,-1.6572,-1.6622,-1.6619,-1.6644,-1.6638,-1.6633,-1.6634,-1.6756,-1.6757,-1.6821,0,0,0,-1.6551,-1.657,-1.6566,-1.6578,-1.659,-1.6606,-1.6588,-1.6617,-1.662,-1.6637,-1.6633,-1.6634,-1.6755,-1.6756,-1.6817,-1.6848,0,0,0,-1.6556,-1.657,-1.6577,-1.6579,-1.659,-1.6605,-1.6605,-1.6617,-1.6617,-1.6632,-1.6635,-1.6754,-1.6756,-1.6813,-1.6842,-1.6886,0,0,0,-1.6567,-1.6633,-1.6578,-1.6649,-1.659,-1.6645,-1.6604,-1.6644,-1.6665,-1.6633,-1.6755,-1.6757,-1.6812,-1.6838,-1.6883,-1.6927,-1.6948,0,0,-1.6661,-1.6645,-1.6686,-1.6637,-1.6707,-1.664,-1.6718,-1.672,-1.6704,-1.674,-1.6743,-1.6818,-1.6841,-1.6885,-1.7054,-1.7071,0,0,0,-1.6722,-1.6751,-1.6765,-1.6787,-1.6789,-1.6794,-1.6781,-1.6781,-1.6811,-1.6727,-1.6845,-1.6859,-1.6884,-1.6904,-1.6918,-1.6938,-1.6767,-1.6767,-1.6767,-1.6883,-1.6859,-1.6924,-1.6903,-1.6923,-1.6909,-1.6924,-1.6921,-1.6891,-1.6919,-1.693,-1.7036,-1.706,-1.7071,-1.7092,-1.6952,-1.6952,-1.6952,-1.6952,-1.7019,-1.7057,-1.7014,-1.7062,-1.7036,-1.7076,-1.7064,-1.7041,-1.7074,-1.7026,-1.7046,-1.6996,-1.7089,-1.7107,-1.6957,-1.6956,-1.6955,-1.6955,-1.6955,-1.7122,-1.7136,-1.7135,-1.7162,-1.7186,-1.7162,-1.7195,-1.717,-1.7147,-1.7167,-1.7176,-1.7175,-1.7171,-1.7173,-1.7173,-1.7174,-1.7174,-1.7174,-1.7175,-1.7229,-1.7226,-1.7258,-1.7266,-1.7276,-1.7285,-1.7271,-1.728,-1.7283,-1.7262,-1.7262,-1.7229,-1.7103,-1.7072,-1.718,-1.7179,-1.7178,-1.7178,-1.7178,-1.7377,-1.7339,-1.7389,-1.7398,-1.7405,-1.743,-1.7397,-1.7417,-1.7421,-1.7438,-1.74,-1.7311,-1.7293,-1.7282,-1.7256,-1.7405,-1.7405,-1.7405,-1.7405,-1.7464,-1.7453,-1.7497,-1.7514,-1.7528,-1.7503,-1.7559,-1.7548,-1.7531,-1.7532,-1.7506,-1.747,-1.7459,-1.7447,-1.7433,-1.7408,-1.7593,-1.7593,-1.7593,-1.7554,-1.7542,-1.7595,-1.7578,-1.7581,-1.7584,-1.7635,-1.7657,-1.763,-1.76,-1.7532,-1.7524,-1.7465,-1.7446,-1.7417,-1.7394,-1.7349,0,0]}]]